This is the latest recevied weather packets stored in our database for station/object KC3QLX. If no packets are shown the sender has not sent any weather packets the latest 10 day(s).
| Time | Temp. | Humidity | Pressure | Rain* | Wind** | Luminosity | Snow |
|---|---|---|---|---|---|---|---|
| 1778244410 | 8.33° C | 85% | 1013.8 hPa | 0 mm | - | 83 W/m² | - |
| 1778244107 | 8.33° C | 85% | 1013.8 hPa | 0 mm | - | 112 W/m² | - |
| 1778243806 | 8.33° C | 85% | 1013.9 hPa | 0 mm | - | 89 W/m² | - |
| 1778243503 | 7.78° C | 89% | 1013.8 hPa | 0 mm | - | 143 W/m² | - |
| 1778243199 | 7.22° C | 94% | 1013.7 hPa | 0 mm | - | 101 W/m² | - |
| 1778242896 | 6.67° C | 99% | 1013.7 hPa | 0 mm | - | 151 W/m² | - |
| 1778242594 | 6.11° C | 99% | 1013.9 hPa | 0 mm | - | 152 W/m² | - |
| 1778242292 | 6.11° C | 99% | 1013.9 hPa | 0 mm | - | 67 W/m² | - |
| 1778241989 | 6.67° C | 99% | 1013.6 hPa | 0 mm | - | 83 W/m² | - |
| 1778241687 | 5.56° C | 99% | 1013.6 hPa | 0 mm | - | 134 W/m² | - |
| 1778241385 | 5.56° C | 99% | 1013.7 hPa | 0 mm | - | 74 W/m² | - |
| 1778241081 | 5.56° C | 99% | 1013.7 hPa | 0 mm | - | 86 W/m² | - |
| 1778240778 | 5° C | 99% | 1014 hPa | 0 mm | - | 106 W/m² | - |
| 1778240474 | 5° C | 99% | 1013.8 hPa | 0 mm | - | 85 W/m² | - |
| 1778240172 | 4.44° C | 99% | 1013.9 hPa | 0 mm | - | 49 W/m² | - |
| 1778239870 | 3.89° C | 99% | 1013.7 hPa | 0 mm | - | 45 W/m² | - |
| 1778239565 | 3.33° C | 99% | 1013.7 hPa | 0 mm | - | 42 W/m² | - |
| 1778239263 | 2.78° C | 99% | 1013.8 hPa | 0 mm | - | 40 W/m² | - |
| 1778238960 | 2.22° C | 99% | 1013.7 hPa | 0 mm | - | 38 W/m² | - |
| 1778238657 | 2.22° C | 99% | 1013.6 hPa | 0 mm | - | 35 W/m² | - |
| 1778238355 | 2.22° C | 99% | 1013.5 hPa | 0 mm | - | 34 W/m² | - |
| 1778238050 | 2.22° C | 99% | 1013.5 hPa | 0 mm | - | 31 W/m² | - |
| 1778237745 | 2.22° C | 99% | 1013.4 hPa | 0 mm | - | 30 W/m² | - |
| 1778237443 | 2.22° C | 99% | 1013.5 hPa | 0 mm | - | 27 W/m² | - |
| 1778237141 | 1.67° C | 99% | 1013.1 hPa | 0 mm | - | 26 W/m² | - |
* Rain latest hour (hover to see other rain measurements)
** Current wind speed in m/s (hover to see current wind gust speed)